Akbogaz, Turkey

10:57 AM +03 on January 16, 2018 (GMT +0300)
Akbogaz

Weather History for 17135 - April, 2014

Change the Weather History Date:

Sunday, April 20, 2014

  Actual Average Record
Temperature  
Mean Temperature 52 °F -  
Max Temperature 68 °F - - ()
Min Temperature 37 °F - - ()
Degree Days  
Heating Degree Days 12    
Growing Degree Days 2 (Base 50)    
Moisture  
Dew Point 33 °F    
Average Humidity 37    
Maximum Humidity 68    
Minimum Humidity 15    
Precipitation  
Precipitation 0.00 in - - ()
Sea Level Pressure  
Sea Level Pressure 29.99 in    
Wind  
Wind Speed 3 mph ()    
Max Wind Speed 6 mph    
Max Gust Speed -    
Visibility 12.0 miles    
Events      
T = Trace of Precipitation, MM = Missing Value Source: Averaged Metar Reports

Daily Weather History Graph

Daily Weather History Graph

Search for Another Location

Airport or City:

Trip Planner

Search our weather history database for the weather conditions in past years. The results will help you decide how hot, cold, wet, or windy it might be!

Date:

Astronomy

Apr. 20, 2014 Rise Set
Actual Time 5:58 AM EEST 7:26 PM EEST
Civil Twilight 5:30 AM EEST 7:55 PM EEST
Nautical Twilight 4:56 AM EEST 8:29 PM EEST
Astronomical Twilight 4:20 AM EEST 9:05 PM EEST
Moon No Moon Rise 9:57 AM EEST (4/20)
Length of Visible Light 14h 24m
Length of Day
13h 28m
Waning Gibbous, 72% of the Moon is Illuminated
Apr 20
Waning Gibbous
Apr 22
Last Quarter
Apr 29
New
May 7
First Quarter
May 14
Full

Hourly Weather History & Observations

Time (EEST) Temp. Dew Point Humidity Pressure Visibility Wind Dir Wind Speed Gust Speed Precip Events Conditions
12:00 AM 49 °F 32 °F 40% 30.01 in 12 mi SW 5.8 mph - -  
1:00 AM 47 °F 33 °F 46% 30.02 in 12 mi SW 5.8 mph - -  
2:00 AM 45 °F 33 °F 51% 30.01 in 12 mi SW 5.8 mph - -  
3:00 AM 44 °F 33 °F 54% 30.03 in 12 mi SSW 3.5 mph - -  
4:00 AM 43 °F 33 °F 58% 30.04 in 12 mi ENE 1.2 mph - -  
5:00 AM 40 °F 33 °F 66% 30.05 in 12 mi East 2.3 mph - -  
6:00 AM 39 °F 32 °F 68% 30.13 in 12 mi East 3.5 mph - -  
7:00 AM 39 °F 32 °F 67% 30.09 in 12 mi ESE 3.5 mph - -  
8:00 AM 43 °F 34 °F 60% 30.10 in 12 mi East 4.6 mph - -   Scattered Clouds
9:00 AM 49 °F 35 °F 46% 30.09 in 12 mi ESE 2.3 mph - -   Scattered Clouds
10:00 AM 53 °F 36 °F 40% 30.07 in 12 mi East 2.3 mph - -   Partly Cloudy
11:00 AM 56 °F 34 °F 31% 30.05 in 12 mi North 2.3 mph - -   Partly Cloudy
12:00 PM 59 °F 33 °F 26% 30.03 in 12 mi SW 2.3 mph - -   Partly Cloudy
1:00 PM 61 °F 33 °F 23% 30.00 in 12 mi NE 4.6 mph - -   Scattered Clouds
2:00 PM 63 °F 32 °F 20% 29.98 in 12 mi North 2.3 mph - -   Scattered Clouds
3:00 PM 65 °F 30 °F 16% 29.95 in 12 mi WNW 3.5 mph - -   Scattered Clouds
4:00 PM 68 °F 33 °F 17% 29.91 in 12 mi NW 2.3 mph - -   Partly Cloudy
5:00 PM 67 °F 30 °F 15% 29.90 in 12 mi West 3.5 mph - -   Scattered Clouds
6:00 PM 67 °F 30 °F 15% 29.89 in 12 mi NW 1.2 mph - -   Scattered Clouds
7:00 PM 65 °F 29 °F 15% 29.89 in 12 mi NNE 4.6 mph - -   Scattered Clouds
8:00 PM 62 °F 30 °F 19% 29.89 in 12 mi North 3.5 mph - -   Scattered Clouds
9:00 PM 58 °F 36 °F 32% 29.91 in 12 mi East 4.6 mph - -   Partly Cloudy
10:00 PM 56 °F 36 °F 35% 29.91 in 12 mi East 4.6 mph - -   Partly Cloudy
11:00 PM 55 °F 36 °F 36% 29.90 in 12 mi ENE 4.6 mph - -   Partly Cloudy